Tracking 30160 objects as of 14-Feb-2025
HD Live streaming from Space Station
objects crossing your sky now

ONEWEB-0312

Track ONEWEB-0312 now!
10-day predictions
ONEWEB-0312 is classified as:


NORAD ID: 49098
Int'l Code: 2021-075Z
Perigee: 1,199.4 km
Apogee: 1,202.3 km
Inclination: 87.9 °
Period: 109.3 minutes
Semi major axis: 7571 km
RCS: Unknown
Launch date: August 21, 2021
Source: United Kingdom (UK)
Launch site: TYURATAM MISSILE AND SPACE COMPLEX (TTMTR)
Your satellite tracking list
Your tracking list is empty




NASA's NSSDC Master Catalog

Two Line Element Set (TLE):
1 49098U 21075Z   25044.38577201  .00000104  00000-0  23346-3 0  9999
2 49098  87.9052 103.2778 0001875  86.2973 273.8372 13.17651294169239
Source of the keplerian elements: AFSPC